RH
95 32 6 5 7 15 32 54 94 39 58 68 100 99 98 90 96 94 95 98 97 93 100 85 71 48 69 71 74 65 70 64 56 54 46 50 52 50 56 57 50 79 84 46
98 87 32 8 7 10 21 50 54 69 68 84 85 96 100 91 98 95 95 97 92 86 99 96 68 59 69 74 78 77 82 71 74 82 75 66 54 35 49 75 99 80 96 54
100 100 66 25 7 8 14 47 54 70 100 92 83 71 100 96 83 82 98 91 90 95 94 85 74 76 58 44 67 83 82 69 72 65 66 61 64 55 71 100 97 82 88 76
100 100 100 67 11 7 21 96 80 54 82 100 88 85 92 72 98 64 48 53 60 64 73 84 85 89 38 31 59 79 99 82 85 81 76 58 58 68 90 99 90 93 58 68
100 100 100 100 32 35 99 100 100 100 76 92 98 89 95 75 77 53 34 26 24 29 34 35 33 28 29 66 66 55 98 86 87 82 73 90 89 88 97 90 81 83 74 81
100 99 100 100 85 78 100 100 100 100 100 100 78 94 97 80 91 77 66 42 35 29 28 35 38 53 52 79 100 95 100 99 99 93 98 99 92 56 71 64 59 64 89 77
100 100 100 100 100 99 83 95 100 100 98 99 80 84 90 96 88 67 62 53 55 32 56 60 56 55 55 68 87 100 100 98 100 97 96 95 53 48 41 62 64 68 83 68
97 100 100 100 100 100 100 100 100 97 90 100 97 80 69 62 75 94 82 92 76 63 80 91 97 90 96 78 82 100 100 98 98 90 85 71 56 42 45 74 90 86 56 48
100 92 96 99 100 96 100 100 84 100 100 98 81 100 87 79 99 84 74 88 99 81 98 100 100 100 98 100 92 91 95 86 91 92 95 81 56 52 72 100 79 59 49 70
91 100 100 100 100 100 100 100 99 98 100 90 84 92 76 65 64 98 91 66 72 87 100 99 100 100 96 90 78 64 59 67 74 65 95 80 65 99 100 95 70 75 69 85
100 100 87 86 96 100 100 98 100 99 100 92 91 83 70 56 58 71 65 72 87 69 98 96 89 100 95 83 72 64 60 67 94 100 95 100 100 95 92 95 68 58 92 100
100 98 49 76 93 70 82 100 100 93 55 58 61 69 100 97 100 99 100 100 94 73 98 100 100 98 89 52 50 65 86 87 100 100 99 98 83 62 68 83 90 100 100 100
100 100 98 82 70 90 100 74 95 100 100 92 82 86 96 55 83 94 96 100 100 91 97 99 54 57 81 72 66 100 100 92 97 87 66 61 69 98 100 100 100 100 98 97
100 100 100 100 100 96 92 100 100 100 100 100 100 100 100 100 100 94 80 66 94 100 61 73 96 100 99 100 100 100 93 86 86 89 82 85 100 99 97 95 83 68 53 39
99 100 100 100 100 99 100 100 79 87 100 100 100 99 98 94 97 89 91 93 97 100 100 99 100 100 98 92 94 93 90 97 100 100 100 96 87 82 70 63 49 44 41 47
28 59 97 100 100 100 100 100 100 100 100 100 95 100 100 97 84 95 98 100 100 100 100 100 100 95 91 95 92 87 92 98 93 84 75 72 69 56 59 58 54 64 53 53
19 18 15 44 89 99 100 100 100 100 100 100 100 100 100 100 100 100 100 100 100 100 100 100 100 99 97 92 82 74 72 60 53 44 39 43 54 52 52 48 53 50 50 50
19 21 16 12 12 19 53 85 98 100 99 100 100 100 100 100 100 99 95 90 90 89 92 94 90 86 76 69 64 62 56 40 46 44 34 30 30 33 40 43 42 41 39 34
47 30 24 20 15 16 21 21 31 66 72 82 85 86 94 90 74 66 64 57 53 52 49 49 40 34 29 27 28 28 26 25 30 37 38 36 35 36 32 26 20 14 10 10
64 71 60 40 32 22 19 28 24 23 24 38 40 40 51 53 58 53 53 54 54 47 46 44 40 40 38 31 33 35 33 33 34 36 32 23 12 10 10 12 12 13 15 14
70 75 78 81 77 74 69 72 68 65 61 52 64 57 58 58 73 68 63 67 64 57 50 44 42 43 36 38 38 36 33 27 20 13 19 24 21 28 34 44 34 16 17 66
100 99 96 91 85 77 81 79 77 69 68 70 69 73 75 81 73 71 65 56 52 45 46 44 41 42 39 32 25 18 16 14 23 35 25 41 54 53 60 67 48 65 92 74
100 99 94 93 87 88 86 81 76 68 64 61 58 62 61 58 61 58 59 55 53 49 50 43 34 27 23 20 17 24 36 46 55 35 46 64 71 76 78 87 84 83 56 17
96 88 80 70 64 61 58 59 60 60 60 58 55 56 56 57 56 52 51 46 42 36 30 30 24 24 45 61 68 84 64 48 63 53 37 52 63 38 20 22 16 15 14 14
82 83 75 60 52 45 47 50 52 54 51 49 43 41 40 38 35 35 35 40 32 32 35 36 50 70 88 90 94 91 49 48 45 39 49 44 24 20 19 18 17 16 15 15
71 72 74 60 57 58 62 73 85 81 74 70 62 60 53 68 68 69 79 71 70 74 77 74 84 82 80 95 100 100 85 70 67 72 51 41 34 31 26 19 19 19 17 18
60 73 64 58 62 73 80 99 98 93 97 91 92 96 100 100 100 100 100 94 100 100 99 94 99 99 95 85 76 74 91 89 76 61 61 62 56 36 26 26 15 14 20 25
Wind_Speed
56 70 96 104 103 100 98 102 102 106 98 94 91 80 66 67 74 79 67 53 41 43 44 43 41 39 32 35 33 37 36 38 40 40 40 40 40 39 38 41 44 45 42 47
50 58 75 99 102 99 94 95 101 102 99 99 102 92 72 74 87 88 78 65 68 54 53 50 44 33 36 43 42 42 43 45 45 45 46 46 42 40 41 42 45 46 49 46
43 54 68 86 100 94 93 93 96 95 96 95 97 97 89 88 86 85 86 85 80 73 60 60 61 49 50 52 44 45 49 50 49 50 46 41 41 41 39 45 48 46 47 44
37 52 57 70 92 92 88 74 82 97 98 89 94 78 86 88 78 82 88 86 84 80 73 76 72 66 57 57 57 50 45 45 47 46 44 47 48 43 45 46 46 54 53 55
34 51 59 60 82 86 87 82 74 71 94 91 86 95 88 91 87 85 82 86 78 75 77 76 65 59 59 56 54 51 53 55 49 51 47 50 49 48 52 55 56 57 58 59
31 51 57 64 70 90 94 87 80 78 73 64 83 86 78 73 75 67 70 70 70 72 65 64 61 58 60 59 47 55 54 54 39 46 44 46 53 49 52 54 57 59 63 56
31 46 58 65 70 79 91 97 69 52 63 73 75 72 80 80 77 78 74 69 65 65 63 65 65 64 65 64 62 60 62 63 56 57 57 61 60 58 59 62 60 60 61 58
29 40 52 58 82 91 84 80 89 74 66 63 60 66 70 75 77 74 77 75 73 69 63 59 64 64 57 59 63 65 65 57 61 65 63 65 63 61 62 65 62 60 56 56
23 34 44 54 67 86 74 76 66 64 59 67 65 60 60 67 71 70 74 71 66 66 58 58 60 58 61 66 66 68 66 62 59 63 67 72 65 63 66 54 64 56 54 55
20 29 35 59 71 73 68 54 62 59 58 57 64 65 61 59 63 70 71 71 68 71 65 66 66 65 67 72 72 75 73 69 67 65 67 68 63 59 59 61 60 55 55 58
15 15 28 72 78 66 73 61 61 52 49 48 53 56 56 55 58 60 60 63 68 68 64 63 66 67 67 66 64 63 64 59 51 51 57 57 57 60 60 56 58 59 56 58
11 21 36 64 63 62 62 56 52 49 48 50 44 44 52 50 52 47 51 54 55 56 59 57 55 58 59 58 55 50 53 55 55 55 58 60 58 57 58 57 56 60 60 57
16 15 34 46 51 49 46 53 48 45 50 43 42 38 36 54 60 55 57 55 52 57 61 59 56 53 50 53 53 48 52 55 57 57 60 59 58 58 61 65 65 66 65 58
21 17 21 37 32 34 33 38 40 54 41 38 41 40 39 43 43 45 49 55 44 45 52 57 58 53 51 49 47 50 54 55 56 57 58 61 61 61 62 62 56 51 52 54
17 24 29 28 27 27 29 32 38 36 38 40 46 44 42 38 35 32 39 46 45 44 47 47 46 46 52 57 57 59 56 52 50 47 48 52 52 51 49 48 51 54 57 59
15 11 11 21 34 38 43 44 43 43 41 41 40 42 41 41 37 36 41 47 50 48 51 54 55 57 56 50 50 43 41 44 45 46 48 49 46 49 53 55 58 61 62 63
19 20 18 16 13 16 26 34 37 45 45 47 44 48 47 50 49 50 49 43 40 50 43 46 44 45 44 44 39 39 43 44 44 44 42 44 52 55 59 60 59 59 59 57
20 21 24 24 25 24 23 21 22 25 29 35 38 36 37 36 35 32 29 26 27 26 28 29 31 31 29 30 35 39 39 40 46 48 48 50 53 55 54 52 51 50 47 46
14 19 22 24 26 26 25 27 30 32 31 30 26 27 32 31 30 32 33 34 34 34 36 36 35 33 36 37 39 43 45 47 47 46 45 43 42 40 40 42 44 45 44 42
13 15 19 23 27 30 31 31 30 33 34 34 36 38 34 36 37 37 36 37 39 39 37 38 38 35 35 35 34 35 36 36 35 32 31 31 33 34 33 33 32 26 22 18
12 14 17 18 20 22 26 26 27 29 30 34 31 33 31 31 33 33 34 32 32 34 33 34 31 30 32 30 30 29 28 26 26 24 21 19 16 14 14 11 11 11 9 8
10 11 12 13 16 19 22 23 25 26 26 29 29 30 31 30 31 30 30 29 30 32 31 30 30 30 27 25 24 24 23 23 17 15 13 11 7 8 8 9 11 11 10 8
13 13 12 12 13 14 17 19 23 25 26 27 27 28 30 30 31 30 29 30 30 29 28 25 23 21 21 21 21 19 18 17 16 15 14 10 7 10 9 10 10 11 11 8
14 11 10 7 8 9 11 13 15 16 18 20 21 22 23 23 23 24 26 26 24 24 23 19 19 19 20 19 18 17 15 15 13 15 16 15 12 10 11 12 10 9 8 7
9 9 8 5 3 6 9 11 13 14 15 15 16 17 18 19 20 22 22 22 23 20 15 19 19 19 16 14 16 18 17 14 11 14 14 13 13 12 11 12 12 12 12 12
9 8 7 4 4 5 10 13 13 13 12 12 14 16 16 14 13 14 17 18 15 12 15 19 20 18 16 14 13 17 17 19 16 13 12 13 12 12 12 12 14 16 17 17
7 11 8 7 4 5 7 13 11 11 12 10 11 13 15 14 13 12 11 13 17 16 14 17 21 18 15 12 12 12 14 17 17 17 20 20 18 19 18 19 20 20 18 17
Wind_Direction
221 218 213 212 213 214 215 218 219 217 217 218 226 221 224 228 229 233 229 227 222 216 222 228 229 236 243 235 246 260 251 251 257 256 249 246 251 257 265 266 264 258 259 262
221 216 213 209 209 211 214 216 219 219 217 218 221 221 227 232 233 235 236 234 231 234 235 233 230 238 245 239 253 257 254 254 259 252 252 254 267 276 277 267 255 255 255 266
220 212 209 206 205 205 209 212 216 219 222 218 221 223 223 225 234 236 238 242 236 238 239 240 243 255 258 252 253 259 259 261 262 258 257 261 270 273 267 262 249 259 263 279
216 207 202 200 201 200 200 199 218 220 219 221 220 219 228 224 231 235 237 239 241 243 248 247 246 256 260 254 250 253 257 261 257 254 260 268 270 265 260 253 259 268 277 280
215 204 197 194 198 191 190 191 200 209 222 217 219 216 222 227 231 236 239 241 243 245 246 251 260 256 250 256 255 256 255 252 258 261 261 263 258 254 253 260 271 276 275 271
218 198 191 191 194 191 188 194 202 205 209 217 223 220 222 229 232 231 235 239 241 243 247 250 249 250 247 249 252 252 254 260 256 257 256 266 262 265 267 272 276 277 268 275
206 197 195 192 181 187 193 190 187 208 209 218 224 218 220 218 230 231 233 238 237 236 242 246 247 249 252 248 254 252 253 254 251 261 272 267 271 271 273 275 274 272 270 279
196 195 195 193 183 186 185 189 197 203 213 211 214 218 223 228 232 232 236 235 242 244 243 246 244 244 250 250 250 247 243 253 267 270 272 274 272 273 274 272 264 270 273 270
187 189 197 192 189 187 186 190 197 204 217 216 219 221 219 219 221 230 234 233 235 236 233 239 242 245 241 238 239 248 261 265 268 268 268 269 275 274 270 264 263 273 279 273
180 190 195 187 182 182 186 182 187 200 211 207 212 220 223 223 221 220 228 237 238 236 245 250 249 247 245 250 252 253 257 259 262 267 267 267 268 259 260 271 276 279 276 268
116 156 175 183 176 173 184 184 196 201 206 208 214 219 222 225 225 226 234 232 235 240 243 247 248 247 249 252 253 254 254 255 259 261 262 259 266 271 279 279 282 280 269 259
160 141 154 179 174 184 192 195 191 200 216 219 220 222 221 220 217 219 227 232 237 237 239 235 235 245 252 256 253 254 253 256 255 254 259 271 275 276 273 271 269 262 256 256
137 136 164 166 173 185 193 187 194 206 214 223 218 216 233 221 217 225 225 225 230 239 239 247 256 252 254 256 256 252 245 247 256 268 270 271 269 266 264 260 260 263 267 271
147 159 157 177 178 194 193 205 214 207 210 221 219 229 231 214 215 218 224 223 234 238 235 239 243 245 247 244 246 255 263 270 270 266 266 263 258 257 258 260 268 277 281 277
144 143 168 179 190 203 206 212 213 211 217 217 222 221 230 220 229 237 232 230 236 230 229 230 226 234 250 260 262 264 266 260 253 252 253 255 258 263 270 277 278 275 273 274
169 176 172 154 162 177 192 200 212 205 203 219 225 222 229 228 237 237 234 227 227 233 228 229 245 251 250 247 245 245 242 242 247 252 256 260 265 269 267 267 268 269 270 272
193 190 187 188 193 176 174 173 179 185 191 191 199 207 211 207 207 209 210 209 216 223 223 223 223 225 230 236 240 243 246 251 255 257 258 259 259 262 264 266 269 271 273 276
202 196 195 196 199 201 196 193 184 182 185 190 192 194 200 201 208 218 221 225 222 234 237 237 238 242 245 244 243 246 250 254 253 253 255 255 259 263 267 269 271 273 275 275
184 193 201 204 204 205 207 207 202 198 205 204 198 203 207 209 211 213 217 219 222 226 229 231 232 237 239 242 244 245 246 249 253 256 259 260 263 267 266 268 271 272 274 278
180 183 190 198 201 204 206 209 212 212 212 213 214 216 219 218 219 224 229 231 232 233 235 238 238 240 241 242 245 246 248 251 252 257 263 267 269 270 274 272 272 273 267 273
167 172 182 191 196 199 202 208 212 212 216 214 215 216 219 223 220 222 223 226 229 231 234 234 237 240 242 244 244 246 248 252 256 261 258 259 259 262 266 264 263 262 230 225
155 169 181 192 197 204 206 210 209 210 212 213 216 215 218 219 220 222 224 228 229 234 235 237 237 235 235 236 238 241 245 248 241 238 227 229 239 268 272 253 243 226 211 236
156 156 164 173 183 190 196 203 206 209 210 210 213 216 220 221 220 224 225 227 229 228 226 227 229 231 230 232 234 233 234 237 238 223 209 217 256 252 236 227 225 227 242 259
156 146 138 152 162 166 171 175 180 181 187 191 196 200 203 205 208 213 214 218 223 226 227 224 219 214 209 214 224 216 211 218 219 221 227 236 242 251 246 235 226 234 248 272
156 159 152 137 158 170 174 177 179 183 190 196 202 205 209 215 218 221 223 225 228 230 220 208 204 195 199 203 210 207 205 207 213 224 232 231 225 227 238 245 254 260 266 268
196 189 185 156 83 147 167 172 174 183 185 191 198 199 197 196 201 207 216 225 229 225 205 197 190 194 199 208 212 214 216 216 223 230 222 225 234 246 261 265 269 270 268 267
233 214 231 203 143 61 178 182 183 188 192 193 188 183 180 189 197 201 206 197 166 170 199 197 194 199 201 212 220 222 222 226 230 237 241 243 251 258 261 267 271 274 275 276